Weather in Mogilevtsy

Russia / Bryansk Oblast     52°22′27″N   32°16′24″E
temp.,
°C
wind,
m/s
gust,
m/s
humid.,
%
clouds,
%
prec.,
mm/h
press.,
hPa
HPBL,
m
9 march, tue
tue900:00−10nw449315 0.0 101485
03:00−11nw47957 0.0 1016134
06:00−13nnw36950 0.0 101794
09:00−11nnw489248 0.0 1019286
12:00−7nnw578337 0.0 1020726
15:00−6nnw467947 0.0 10211038
18:00−7nnw2391100 0.1 102289
21:00−11nnw239187 0.1 102521
10 march, wed
wed1000:00−13nnw12920 0.0 102620
03:00−15nw11921 0.0 102720
06:00−15wsw119161 0.0 102720
09:00−11ssw228968 0.0 102774
12:00−6sw237947 0.0 1027390
15:00−4wsw337572 0.0 1026626
18:00−6ssw228371 0.0 102521
21:00−10sw339074 0.0 102724
11 march, thu
thu1100:00−11sw228976 0.0 102821
03:00−13wnw018769 0.0 102921
06:00−13e229120 0.0 102920
09:00−11ese239520 0.0 1030107
12:00−6se238883 0.0 1030404
15:00−4se338391 0.1 1030665
18:00−5ese3592100 0.1 1029232
21:00−10se469393 0.1 102991
12 march, fri
fri1200:00−12se479629 0.0 1029124
03:00−12se499527 0.0 1028163
06:00−11sse512890 0.0 1027271
09:00−8sse7148450 0.0 1026488
12:00−5s91479100 0.0 1025858
15:00−4sse101578100 0.0 1023952
18:00−5s91681100 0.0 1022974
21:00−5s111893100 0.9 1020907
13 march, sat
sat1300:00−4s111894100 1.4 1019882
03:00−4s91694100 2.1 1019656
06:00−3s71394100 0.4 1019457
09:00−3s71294100 0.6 1020438
12:00−1s71296100 0.1 1020390
15:000ssw611100100 0.4 1019579
18:000s61197100 0.1 1018523
21:000s61198100 0.8 1017565